Location: Unspecified
(0.0000°N, 0.0000°E)
Time: 08:38:32
(UTC+00:00)

Tiros 1 despin weight - Pass Details

Date: 12 October 2023
Orbit: 583 x 627 km, 48.2° (Epoch: 05 December)

Event Time Altitude Azimuth Distance (km) Brightness Sun altitude
Rises 10:26:17 0° 187° (S) 2,889 ? 68.7°
Reaches altitude 10° 10:29:40 10° 161° (SSE) 1,990 ? 69.5°
Maximum altitude 10:32:00 14° 130° (SE) 1,756 ? 70.0°
Drops below altitude 10° 10:34:20 10° 100° (E) 1,995 ? 70.5°
Sets 10:37:43 0° 74° (ENE) 2,902 ? 71.3°
